Regional Weather Roundup
Issued by NWS Sterling, VA

Home | Current Version | Previous Version | Graphics & Text | Print | Product List | Glossary On
Versions: 1 2 3 4 5 6 7 8 9 10 11 12 13 14 15 16 17 18 19 20 21 22 23 24 25 26 27
000
ASUS41 KLWX 180410
RWRLWX

REGIONAL WEATHER ROUNDUP
NATIONAL WEATHER SERVICE BALTIMORE MD/WASHINGTON DC
1200 AM EDT FRI APR 18 2014

Note: "FAIR" indicates few or no clouds below 12,000 feet
with no significant weather and/or obstructions to visibility.
 TC=TEMPERATURE CELSIUS

 * =Non NWS site. Station does not report precipitation (e.g. rain,
    snow, etc.), thunder, or fog.

DCZ001-MDZ009-015-VAZ040>042-051-053>054-180500-
WASHINGTON METRO

CITY           SKY/WX    TMP DP  RH WIND       PRES   REMARKS
WASHINGTON NAT PTCLDY    43  32  65 E7        30.61R
DULLES         CLEAR     40  31  70 SE7       30.59R
ANDREWS AFB    CLEAR     38  31  76 E5        30.59R
FT BELVOIR     CLEAR     40  32  71 VRB2      30.60R
QUANTICO       CLEAR     43  33  68 E12       30.60S
COLLEGE PARK*  CLEAR     41  32  70 NE3       30.61R
LEESBURG*      CLEAR     43  34  70 SE6       30.60R
MANASSAS*      CLEAR     41  34  75 E3        30.59S
GAITHERSBURG*  CLEAR     37  28  70 E7        30.62R

$$

MDZ006>007-011-014-180500-
BALTIMORE METRO

CITY           SKY/WX    TMP DP  RH WIND       PRES   REMARKS
BWI AIRPORT    PTCLDY    38  31  76 CALM      30.60R
MD SCIENCE CTR   N/A     42  29  59 MISG      30.60R
MARTIN STATE   CLEAR     41  30  65 E9        30.62S
ANNAPOLIS      MOCLDY    41  32  70 SE8       30.61R
FORT MEADE*    CLEAR     34  30  86 CALM      30.63R

$$

MDZ012-015-019>023-180500-
MARYLAND EASTERN SHORE

CITY           SKY/WX    TMP DP  RH WIND       PRES   REMARKS
OCEAN CITY     CLOUDY    42  32  67 NE12      30.56R
SALISBURY      CLOUDY    43  32  65 E8        30.59R
BAY BRIDGE AP* MOCLDY    37  32  81 CALM      30.62R
CAMBRIDGE*     MOCLDY    41  32  70 NE5       30.60R
EASTON*        MOCLDY    42  33  71 E6        30.64R

$$

MDZ017>025-180500-
SOUTHERN MARYLAND

CITY           SKY/WX    TMP DP  RH WIND       PRES   REMARKS
PATUXENT RIVER CLOUDY    40  30  67 NE6       30.59R
ST INIGOES     MOCLDY    40  32  73 NE3       30.58F
LEONARDTOWN*   CLOUDY    39  32  75 NE3       30.60F

$$

MDZ003>005-180500-
NORTH CENTRAL MARYLAND

CITY           SKY/WX    TMP DP  RH WIND       PRES   REMARKS
FREDERICK*     CLEAR     39  34  81 CALM      30.63R
HAGERSTOWN APT CLEAR     42  31  64 S8        30.57R
WESTMINSTER*   CLOUDY    39  34  81 SE9       30.57R

$$

MDZ501>502-180500-
WESTERN MARYLAND

CITY           SKY/WX    TMP DP  RH WIND       PRES   REMARKS
OAKLAND*       CLEAR     36  19  51 SE15      30.40F WCI  26
CUMBERLAND*    CLEAR     46  30  53 SE3       30.54F

$$

VAZ025>031-180500-
SHENANDOAH VALLEY

CITY           SKY/WX    TMP DP  RH WIND       PRES   REMARKS
WINCHESTER*    CLEAR     41  32  70 E6        30.54S
STAUNTON*      PTCLDY    42  29  60 CALM      30.51S

$$

WVZ021-048>050-054>055-180500-
EASTERN WEST VIRGINIA PANHANDLE

CITY           SKY/WX    TMP DP  RH WIND       PRES   REMARKS
MARTINSBURG    CLEAR     42  30  62 SE5       30.57R
PETERSBURG*    PTCLDY    43  36  77 CALM      30.47F

$$

VAZ036>039-050-180500-
CENTRAL FOOTHILLS

CITY           SKY/WX    TMP DP  RH WIND       PRES   REMARKS
CHARLOTTESVILL PTCLDY    43  31  62 E3        30.53F
CULPEPER*      CLEAR     43  34  70 CALM      30.57F

$$

VAZ055>057-180500-
NORTH AND CENTRAL PIEDMONT

CITY           SKY/WX    TMP DP  RH WIND       PRES   REMARKS
FREDERICKSBRG* CLEAR     43  36  75 E6        30.56F
STAFFORD*      CLEAR     42  35  78 E5        30.61F

$$

NCZ024-NYZ072-PAZ021-071-VAZ022-071-180500-
OTHER REGIONAL OBSERVATIONS

CITY           SKY/WX    TMP DP  RH WIND       PRES   REMARKS
NEW YORK CITY  CLEAR     39  27  62 MISG      30.63S
PHILADELPHIA   CLOUDY    39  29  67 NE6       30.61S
PITTSBURGH     PTCLDY    50  27  40 SE9       30.36F
ROANOKE        CLEAR     47  27  45 N3        30.49F
RICHMOND       PTCLDY    42  34  73 E6        30.54F
RALEIGH        PTCLDY    48  37  65 E12       30.47S

$$

ANZ530>537-180500-
MARINE OBSERVATIONS

STATION/POSITION TIME  TEMP    WIND        PRES
                       AIR SEA DIR/SP/G
                 (UTC) (F)     (DEG/KT/KT) (MB)
THOMAS PT LIGHT  0400   41 52   90/  9/ 10 1036.9R
BALT KEY BRIDGE  0400   42      90/ 10/ 12 1036.5R
COVE POINT       0400   40      70/  8/ 10 1036.0R
LEWISETTA        0400   43 53   80/  8/ 11 1035.2F
SOLOMONS ISLAND  0400      52                N/A
PINEY POINT      0400           70/  6/  7   N/A

$$




USA.gov is the U.S. government's official web portal to all federal, state and local government web resources and services.